| time (UTC) | temp C | wind direction | speed KPH | gust KPH | rain 1hr cm | rain 24hr cm | rain mn cm | humidity % | barometer mb |
| 20260502221156 | 12 | 0 | 0.0 | 12.9 | 0.00 | 0.00 | 0.00 | 52 | 1013.0 |
| 20260502220656 | 12 | 0 | 0.0 | 8.0 | 0.00 | 0.00 | 0.00 | 54 | 1012.9 |
| 20260502220157 | 13 | 0 | 0.0 | 14.5 | 0.00 | 0.00 | 0.00 | 57 | 1012.9 |
| 20260502215656 | 13 | 0 | 0.0 | 14.5 | 0.00 | 0.00 | 0.00 | 56 | 1012.9 |
| 20260502215156 | 13 | 0 | 0.0 | 0.0 | 0.00 | 0.00 | 0.00 | 55 | 1012.7 |
| 20260502214656 | 13 | 0 | 0.0 | 0.0 | 0.00 | 0.00 | 0.00 | 57 | 1012.7 |
| 20260502214156 | 13 | 0 | 0.0 | 0.0 | 0.00 | 0.00 | 0.00 | 56 | 1012.6 |
| 20260502213656 | 13 | 0 | 0.0 | 0.0 | 0.00 | 0.00 | 0.00 | 55 | 1012.6 |
| 20260502213156 | 13 | 0 | 0.0 | 0.0 | 0.00 | 0.00 | 0.00 | 57 | 1012.6 |
| 20260502212656 | 13 | 0 | 0.0 | 0.0 | 0.00 | 0.00 | 0.00 | 56 | 1012.4 |
| 20260502212156 | 13 | 0 | 0.0 | 0.0 | 0.00 | 0.00 | 0.00 | 55 | 1012.4 |
| 20260502211656 | 13 | 0 | 0.0 | 9.7 | 0.00 | 0.00 | 0.00 | 52 | 1012.3 |
| 20260502211156 | 13 | 0 | 0.0 | 14.5 | 0.00 | 0.00 | 0.00 | 48 | 1012.3 |
| 20260502210656 | 13 | 0 | 0.0 | 14.5 | 0.00 | 0.00 | 0.00 | 49 | 1012.2 |
| 20260502210156 | 13 | 0 | 0.0 | 16.1 | 0.00 | 0.00 | 0.00 | 47 | 1012.2 |
| 20260502205656 | 13 | 7 | 3.2 | 16.1 | 0.00 | 0.00 | 0.00 | 46 | 1012.2 |
| 20260502205156 | 13 | 0 | 0.0 | 8.0 | 0.00 | 0.00 | 0.00 | 49 | 1012.2 |
| 20260502204656 | 13 | 0 | 0.0 | 11.3 | 0.00 | 0.00 | 0.00 | 49 | 1012.1 |
| 20260502204156 | 14 | 9 | 1.6 | 11.3 | 0.00 | 0.00 | 0.00 | 46 | 1012.1 |
| 20260502202712 | 15 | 0 | 0.0 | 8.0 | 0.00 | 0.00 | 0.00 | 44 | 1012.1 |
| 20260502202212 | 14 | 348 | 1.6 | 8.0 | 0.00 | 0.00 | 0.00 | 47 | 1012.3 |
| 20260502201712 | 14 | 0 | 0.0 | 6.4 | 0.00 | 0.00 | 0.00 | 50 | 1012.2 |
| 20260502201212 | 13 | 0 | 0.0 | 6.4 | 0.00 | 0.00 | 0.00 | 50 | 1012.4 |
| 20260502200712 | 13 | 0 | 0.0 | 6.4 | 0.00 | 0.00 | 0.00 | 52 | 1012.5 |
| 20260502200212 | 13 | 0 | 0.0 | 6.4 | 0.00 | 0.00 | 0.00 | 49 | 1012.6 |
| 20260502195712 | 13 | 0 | 0.0 | 6.4 | 0.00 | 0.00 | 0.00 | 49 | 1012.6 |
| 20260502195212 | 12 | 0 | 0.0 | 8.0 | 0.00 | 0.00 | 0.00 | 51 | 1012.7 |
| 20260502194715 | 12 | 0 | 0.0 | 12.9 | 0.00 | 0.00 | 0.00 | 50 | 1012.8 |
| 20260502194212 | 13 | 348 | 1.6 | 12.9 | 0.00 | 0.00 | 0.00 | 47 | 1012.9 |
| 20260502193712 | 13 | 0 | 0.0 | 6.4 | 0.00 | 0.00 | 0.00 | 48 | 1013.0 |
| 20260502193212 | 13 | 0 | 0.0 | 8.0 | 0.00 | 0.00 | 0.00 | 48 | 1013.1 |
| 20260502192712 | 13 | 348 | 1.6 | 9.7 | 0.00 | 0.00 | 0.00 | 51 | 1013.2 |
| 20260502192212 | 13 | 348 | 1.6 | 9.7 | 0.00 | 0.00 | 0.00 | 47 | 1013.3 |
| 20260502191714 | 12 | 0 | 0.0 | 8.0 | 0.00 | 0.00 | 0.00 | 48 | 1013.2 |
| 20260502191212 | 12 | 348 | 3.2 | 9.7 | 0.00 | 0.00 | 0.00 | 48 | 1013.2 |
| 20260502190744 | 12 | 348 | 1.6 | 9.7 | 0.00 | 0.00 | 0.00 | 51 | 1013.3 |
| 20260502190712 | 12 | 348 | 1.6 | 9.7 | 0.00 | 0.00 | 0.00 | 51 | 1013.3 |
| 20260502190212 | 12 | 0 | 0.0 | 4.8 | 0.00 | 0.00 | 0.00 | 52 | 1013.2 |
| 20260502185712 | 12 | 0 | 0.0 | 3.2 | 0.00 | 0.00 | 0.00 | 50 | 1013.2 |
| 20260502185212 | 12 | 0 | 0.0 | 6.4 | 0.00 | 0.00 | 0.00 | 50 | 1013.3 |
| 20260502184712 | 12 | 0 | 0.0 | 6.4 | 0.00 | 0.00 | 0.00 | 47 | 1013.4 |
| 20260502184212 | 12 | 0 | 0.0 | 6.4 | 0.00 | 0.00 | 0.00 | 49 | 1013.4 |
| 20260502183712 | 12 | 0 | 0.0 | 8.0 | 0.00 | 0.00 | 0.00 | 50 | 1013.4 |
| 20260502183212 | 12 | 348 | 1.6 | 14.5 | 0.00 | 0.00 | 0.00 | 50 | 1013.5 |
| 20260502182712 | 12 | 0 | 0.0 | 14.5 | 0.00 | 0.00 | 0.00 | 53 | 1013.5 |
| 20260502182212 | 12 | 0 | 0.0 | 9.7 | 0.00 | 0.00 | 0.00 | 55 | 1013.6 |
| 20260502181713 | 11 | 0 | 0.0 | 19.3 | 0.00 | 0.00 | 0.00 | 53 | 1013.6 |
| 20260502181212 | 12 | 334 | 6.4 | 19.3 | 0.00 | 0.00 | 0.00 | 50 | 1013.7 |
| 20260502170348 | 10 | 0 | 0.0 | 0.0 | 0.00 | 0.00 | 0.00 | 58 | 1014.6 |
| 20260502164348 | 9 | 0 | 0.0 | 8.0 | 0.00 | 0.00 | 0.00 | 58 | 1015.0 |
| 20260502163848 | 9 | 0 | 0.0 | 0.0 | 0.00 | 0.00 | 0.00 | 59 | 1015.3 |
| 20260502163348 | 9 | 0 | 0.0 | 0.0 | 0.00 | 0.00 | 0.00 | 58 | 1015.3 |
| 20260502162848 | 9 | 0 | 0.0 | 0.0 | 0.00 | 0.00 | 0.00 | 58 | 1015.3 |
| 20260502162348 | 9 | 0 | 0.0 | 0.0 | 0.00 | 0.00 | 0.00 | 61 | 1015.2 |
| 20260502161848 | 8 | 0 | 0.0 | 0.0 | 0.00 | 0.00 | 0.00 | 62 | 1015.1 |
| 20260502161348 | 8 | 0 | 0.0 | 4.8 | 0.00 | 0.00 | 0.00 | 60 | 1015.1 |
| 20260502160848 | 8 | 0 | 0.0 | 4.8 | 0.00 | 0.00 | 0.00 | 62 | 1015.2 |
| 20260502160349 | 8 | 0 | 0.0 | 0.0 | 0.00 | 0.00 | 0.00 | 62 | 1015.3 |
| 20260502152037 | 7 | 0 | 0.0 | 4.8 | 0.00 | 0.00 | 0.00 | 65 | 1015.5 |
| 20260502151537 | 7 | 0 | 0.0 | 4.8 | 0.00 | 0.00 | 0.00 | 63 | 1015.6 |
| 20260502151037 | 7 | 0 | 0.0 | 9.7 | 0.00 | 0.00 | 0.00 | 65 | 1015.3 |
| 20260502150537 | 7 | 0 | 0.0 | 12.9 | 0.00 | 0.00 | 0.00 | 63 | 1015.2 |
| 20260502130334 | 7 | 340 | 6.4 | 17.7 | 0.00 | 0.00 | 0.00 | 70 | 1014.4 |
| 20260502123249 | 7 | 353 | 8.0 | 16.1 | 0.00 | 0.00 | 0.00 | 76 | 1014.0 |
| 20260502122748 | 7 | 347 | 6.4 | 24.1 | 0.00 | 0.00 | 0.00 | 76 | 1013.9 |
| 20260502122248 | 7 | 341 | 4.8 | 24.1 | 0.00 | 0.00 | 0.00 | 76 | 1014.0 |
| 20260502121750 | 7 | 342 | 8.0 | 19.3 | 0.00 | 0.00 | 0.00 | 76 | 1014.0 |
| 20260502121249 | 7 | 340 | 9.7 | 17.7 | 0.00 | 0.00 | 0.00 | 77 | 1013.9 |
| 20260502120748 | 7 | 341 | 4.8 | 17.7 | 0.00 | 0.00 | 0.00 | 78 | 1014.1 |
| 20260502120249 | 7 | 341 | 1.6 | 16.1 | 0.00 | 0.00 | 0.00 | 78 | 1014.2 |
| 20260502115749 | 7 | 0 | 0.0 | 14.5 | 0.00 | 0.00 | 0.00 | 78 | 1014.2 |
| 20260502115248 | 7 | 341 | 1.6 | 14.5 | 0.00 | 0.00 | 0.00 | 77 | 1014.2 |
| 20260502114748 | 7 | 341 | 1.6 | 8.0 | 0.00 | 0.00 | 0.00 | 76 | 1014.3 |
| 20260502114248 | 7 | 0 | 0.0 | 14.5 | 0.00 | 0.00 | 0.00 | 75 | 1014.2 |
| 20260502113748 | 7 | 0 | 0.0 | 14.5 | 0.00 | 0.00 | 0.00 | 74 | 1014.1 |
| 20260502113248 | 7 | 0 | 0.0 | 16.1 | 0.00 | 0.00 | 0.00 | 74 | 1014.1 |
| 20260502112748 | 7 | 340 | 1.6 | 16.1 | 0.00 | 0.00 | 0.00 | 75 | 1014.0 |
| 20260502112248 | 7 | 0 | 0.0 | 16.1 | 0.00 | 0.00 | 0.00 | 76 | 1014.0 |
| 20260502111748 | 7 | 340 | 1.6 | 14.5 | 0.00 | 0.00 | 0.00 | 76 | 1014.0 |
| 20260502111248 | 7 | 340 | 1.6 | 12.9 | 0.00 | 0.00 | 0.00 | 77 | 1013.9 |
| 20260502110748 | 7 | 340 | 3.2 | 12.9 | 0.00 | 0.00 | 0.00 | 78 | 1013.8 |
| 20260502110250 | 7 | 0 | 0.0 | 0.0 | 0.00 | 0.00 | 0.00 | 79 | 1013.9 |
| 20260502105511 | 7 | 340 | 3.2 | 14.5 | 0.00 | 0.00 | 0.00 | 79 | 1013.8 |
| 20260502105010 | 7 | 340 | 4.8 | 12.9 | 0.00 | 0.00 | 0.00 | 80 | 1013.8 |
| 20260502104509 | 7 | 340 | 3.2 | 8.0 | 0.00 | 0.00 | 0.00 | 80 | 1013.8 |
| 20260502104009 | 7 | 0 | 0.0 | 6.4 | 0.00 | 0.00 | 0.00 | 80 | 1013.8 |
| 20260502103514 | 7 | 0 | 0.0 | 0.0 | 0.00 | 0.00 | 0.00 | 81 | 1013.7 |
| 20260502102438 | 7 | 0 | 0.0 | 9.7 | 0.00 | 0.00 | 0.00 | 80 | 1013.7 |
| 20260502101938 | 7 | 0 | 0.0 | 16.1 | 0.00 | 0.00 | 0.00 | 80 | 1013.9 |
| 20260502101438 | 7 | 340 | 3.2 | 16.1 | 0.00 | 0.00 | 0.00 | 80 | 1013.9 |
| 20260502100938 | 7 | 340 | 4.8 | 14.5 | 0.00 | 0.00 | 0.00 | 80 | 1013.9 |
| 20260502100438 | 7 | 340 | 4.8 | 14.5 | 0.00 | 0.00 | 0.00 | 79 | 1013.8 |
| 20260502091121 | 8 | 344 | 6.4 | 27.4 | 0.00 | 0.00 | 0.00 | 80 | 1013.8 |
| 20260502090621 | 8 | 354 | 12.9 | 29.0 | 0.00 | 0.00 | 0.00 | 80 | 1013.8 |
| 20260502090121 | 8 | 343 | 19.3 | 30.6 | 0.00 | 0.00 | 0.00 | 79 | 1013.6 |
| 20260502071121 | 9 | 325 | 8.0 | 14.5 | 0.00 | 0.00 | 0.00 | 81 | 1013.0 |
| 20260502070621 | 9 | 333 | 9.7 | 16.1 | 0.00 | 0.00 | 0.00 | 81 | 1013.0 |
| 20260502070121 | 9 | 330 | 8.0 | 16.1 | 0.00 | 0.00 | 0.00 | 81 | 1013.0 |
| 20260502065623 | 9 | 339 | 8.0 | 14.5 | 0.00 | 0.00 | 0.00 | 82 | 1013.1 |
| 20260502065153 | 9 | 334 | 8.0 | 16.1 | 0.00 | 0.00 | 0.00 | 83 | 1013.2 |
| 20260502065121 | 9 | 334 | 8.0 | 16.1 | 0.00 | 0.00 | 0.00 | 83 | 1013.2 |
| 20260502064621 | 9 | 334 | 9.7 | 16.1 | 0.00 | 0.00 | 0.00 | 82 | 1013.3 |
| 20260502064121 | 9 | 337 | 8.0 | 14.5 | 0.00 | 0.00 | 0.00 | 81 | 1013.2 |
| 20260502063621 | 9 | 323 | 8.0 | 14.5 | 0.00 | 0.00 | 0.00 | 82 | 1013.3 |
| 20260502063121 | 9 | 339 | 8.0 | 19.3 | 0.00 | 0.00 | 0.00 | 82 | 1013.4 |
| 20260502062621 | 9 | 334 | 9.7 | 19.3 | 0.00 | 0.00 | 0.00 | 82 | 1013.5 |
| 20260502062121 | 9 | 327 | 8.0 | 17.7 | 0.00 | 0.00 | 0.00 | 82 | 1013.5 |
| 20260502061621 | 10 | 344 | 9.7 | 19.3 | 0.00 | 0.00 | 0.00 | 83 | 1013.6 |
| 20260502061121 | 10 | 337 | 9.7 | 19.3 | 0.00 | 0.00 | 0.00 | 83 | 1013.6 |
| 20260502060621 | 10 | 331 | 9.7 | 17.7 | 0.00 | 0.00 | 0.00 | 83 | 1013.6 |
| 20260502060121 | 10 | 338 | 9.7 | 17.7 | 0.00 | 0.00 | 0.00 | 84 | 1013.6 |
| 20260502055621 | 10 | 336 | 11.3 | 17.7 | 0.00 | 0.00 | 0.00 | 85 | 1013.6 |
| 20260502055121 | 10 | 334 | 8.0 | 17.7 | 0.00 | 0.00 | 0.00 | 86 | 1013.6 |
| 20260502054622 | 10 | 345 | 9.7 | 17.7 | 0.00 | 0.00 | 0.00 | 87 | 1013.6 |
| 20260502054121 | 10 | 350 | 9.7 | 16.1 | 0.00 | 0.00 | 0.00 | 88 | 1013.6 |
| 20260502053621 | 10 | 333 | 9.7 | 14.5 | 0.00 | 0.00 | 0.00 | 89 | 1013.6 |
| 20260502053121 | 10 | 335 | 8.0 | 16.1 | 0.00 | 0.00 | 0.00 | 89 | 1013.6 |
| 20260502052621 | 10 | 322 | 9.7 | 16.1 | 0.00 | 0.00 | 0.00 | 90 | 1013.7 |
| 20260502052121 | 9 | 325 | 8.0 | 14.5 | 0.00 | 0.00 | 0.00 | 91 | 1013.7 |
| 20260502051622 | 9 | 328 | 8.0 | 12.9 | 0.00 | 0.00 | 0.00 | 91 | 1013.6 |
| 20260502051121 | 9 | 332 | 6.4 | 12.9 | 0.00 | 0.00 | 0.00 | 91 | 1013.7 |
| 20260502050621 | 9 | 333 | 4.8 | 12.9 | 0.00 | 0.00 | 0.00 | 91 | 1013.7 |
| 20260502050122 | 9 | 335 | 6.4 | 12.9 | 0.00 | 0.00 | 0.00 | 91 | 1013.7 |
| 20260502045621 | 9 | 338 | 6.4 | 12.9 | 0.00 | 0.00 | 0.00 | 90 | 1013.8 |
| 20260502045121 | 10 | 336 | 4.8 | 8.0 | 0.00 | 0.00 | 0.00 | 88 | 1013.9 |
| 20260502044621 | 10 | 0 | 0.0 | 6.4 | 0.00 | 0.00 | 0.00 | 87 | 1014.0 |
| 20260502044121 | 10 | 0 | 0.0 | 6.4 | 0.00 | 0.00 | 0.00 | 86 | 1014.0 |
| 20260502043621 | 11 | 0 | 0.0 | 8.0 | 0.00 | 0.00 | 0.00 | 85 | 1013.9 |
| 20260502043121 | 11 | 0 | 0.0 | 8.0 | 0.00 | 0.00 | 0.00 | 85 | 1014.1 |
| 20260502042214 | 10 | 0 | 0.0 | 9.7 | 0.00 | 0.00 | 0.00 | 86 | 1013.8 |
| 20260502041714 | 10 | 0 | 0.0 | 9.7 | 0.00 | 0.00 | 0.00 | 86 | 1013.8 |
| 20260502041214 | 10 | 0 | 0.0 | 9.7 | 0.00 | 0.00 | 0.00 | 86 | 1013.7 |
| 20260502040714 | 10 | 217 | 1.6 | 9.7 | 0.00 | 0.00 | 0.00 | 86 | 1013.8 |
| 20260502040214 | 10 | 0 | 0.0 | 8.0 | 0.00 | 0.00 | 0.00 | 86 | 1013.8 |
| 20260502035714 | 10 | 0 | 0.0 | 11.3 | 0.00 | 0.00 | 0.00 | 86 | 1013.7 |
| 20260502035214 | 10 | 203 | 1.6 | 11.3 | 0.00 | 0.00 | 0.00 | 85 | 1013.8 |
| 20260502034714 | 10 | 204 | 3.2 | 14.5 | 0.00 | 0.00 | 0.00 | 85 | 1013.9 |
| 20260502034214 | 10 | 204 | 1.6 | 14.5 | 0.00 | 0.00 | 0.00 | 85 | 1013.9 |
| 20260502033714 | 10 | 199 | 1.6 | 12.9 | 0.00 | 0.00 | 0.00 | 85 | 1013.8 |
| 20260502033214 | 10 | 201 | 4.8 | 14.5 | 0.00 | 0.00 | 0.00 | 86 | 1014.0 |
| 20260502032714 | 10 | 202 | 6.4 | 14.5 | 0.00 | 0.00 | 0.00 | 86 | 1014.0 |
| 20260502032214 | 10 | 201 | 6.4 | 19.3 | 0.00 | 0.00 | 0.00 | 87 | 1014.0 |
| 20260502031714 | 10 | 199 | 9.7 | 19.3 | 0.00 | 0.00 | 0.00 | 87 | 1014.0 |
| 20260502031214 | 10 | 196 | 6.4 | 17.7 | 0.00 | 0.00 | 0.00 | 87 | 1014.0 |
| 20260502030714 | 10 | 176 | 3.2 | 11.3 | 0.00 | 0.00 | 0.00 | 86 | 1014.0 |
| 20260502030214 | 10 | 182 | 4.8 | 17.7 | 0.00 | 0.00 | 0.00 | 86 | 1014.0 |
| 20260502025714 | 10 | 183 | 8.0 | 17.7 | 0.00 | 0.00 | 0.00 | 86 | 1014.0 |
| 20260502025214 | 10 | 186 | 6.4 | 14.5 | 0.00 | 0.00 | 0.00 | 85 | 1013.9 |
| 20260502024714 | 10 | 191 | 4.8 | 22.5 | 0.00 | 0.00 | 0.00 | 85 | 1014.0 |
| 20260502024214 | 10 | 189 | 8.0 | 35.4 | 0.00 | 0.00 | 0.00 | 85 | 1014.0 |
| 20260502023714 | 11 | 192 | 8.0 | 35.4 | 0.00 | 0.00 | 0.00 | 84 | 1014.0 |
| 20260502023214 | 11 | 186 | 11.3 | 25.7 | 0.00 | 0.00 | 0.00 | 84 | 1013.9 |
| 20260502022714 | 11 | 193 | 11.3 | 27.4 | 0.00 | 0.00 | 0.00 | 84 | 1013.8 |
| 20260502022214 | 11 | 189 | 11.3 | 27.4 | 0.00 | 0.00 | 0.00 | 83 | 1013.9 |
| 20260502021716 | 11 | 196 | 12.9 | 24.1 | 0.00 | 0.00 | 0.00 | 83 | 1013.7 |
| 20260502021215 | 11 | 183 | 9.7 | 22.5 | 0.00 | 0.00 | 0.00 | 82 | 1013.7 |
| 20260502020715 | 11 | 195 | 11.3 | 24.1 | 0.00 | 0.00 | 0.00 | 82 | 1013.7 |
| 20260502020216 | 11 | 191 | 11.3 | 24.1 | 0.00 | 0.00 | 0.00 | 81 | 1013.6 |
| 20260502015715 | 11 | 195 | 9.7 | 20.9 | 0.00 | 0.00 | 0.00 | 81 | 1013.5 |
| 20260502015214 | 11 | 185 | 8.0 | 20.9 | 0.00 | 0.00 | 0.00 | 80 | 1013.4 |
| 20260502014714 | 11 | 189 | 11.3 | 20.9 | 0.00 | 0.00 | 0.00 | 80 | 1013.4 |
| 20260502014216 | 11 | 178 | 11.3 | 22.5 | 0.00 | 0.00 | 0.00 | 79 | 1013.3 |
| 20260502013714 | 11 | 185 | 11.3 | 22.5 | 0.00 | 0.00 | 0.00 | 79 | 1013.4 |
| 20260502013214 | 11 | 182 | 6.4 | 17.7 | 0.00 | 0.00 | 0.00 | 78 | 1013.5 |
| 20260502012716 | 11 | 189 | 6.4 | 17.7 | 0.00 | 0.00 | 0.00 | 77 | 1013.5 |
| 20260502012217 | 12 | 197 | 11.3 | 17.7 | 0.00 | 0.00 | 0.00 | 77 | 1013.4 |
| 20260502011716 | 12 | 188 | 8.0 | 19.3 | 0.00 | 0.00 | 0.00 | 76 | 1013.5 |
| 20260502011216 | 12 | 191 | 11.3 | 19.3 | 0.00 | 0.00 | 0.00 | 76 | 1013.4 |
| 20260502010714 | 12 | 196 | 6.4 | 17.7 | 0.00 | 0.00 | 0.00 | 75 | 1013.4 |
| 20260502010215 | 12 | 195 | 9.7 | 19.3 | 0.00 | 0.00 | 0.00 | 75 | 1013.2 |
| 20260502005714 | 12 | 193 | 8.0 | 19.3 | 0.00 | 0.00 | 0.00 | 74 | 1013.3 |
| 20260502005215 | 12 | 198 | 8.0 | 20.9 | 0.00 | 0.00 | 0.00 | 74 | 1013.2 |
| 20260502004714 | 12 | 201 | 11.3 | 20.9 | 0.00 | 0.00 | 0.00 | 73 | 1013.1 |
| 20260502004214 | 12 | 198 | 9.7 | 17.7 | 0.00 | 0.00 | 0.00 | 73 | 1012.8 |
| 20260502003714 | 12 | 195 | 9.7 | 19.3 | 0.00 | 0.00 | 0.00 | 73 | 1012.6 |
| 20260502003214 | 12 | 198 | 9.7 | 19.3 | 0.00 | 0.00 | 0.00 | 72 | 1012.6 |
| 20260502002714 | 12 | 193 | 8.0 | 19.3 | 0.00 | 0.00 | 0.00 | 72 | 1012.7 |
| 20260502002214 | 13 | 197 | 9.7 | 19.3 | 0.00 | 0.00 | 0.00 | 72 | 1012.5 |
| 20260502000837 | 13 | 203 | 8.0 | 16.1 | 0.00 | 0.00 | 0.00 | 71 | 1012.6 |
| 20260502000339 | 13 | 202 | 6.4 | 19.3 | 0.00 | 0.00 | 0.00 | 70 | 1012.4 |
| 20260501235837 | 13 | 199 | 8.0 | 19.3 | 0.00 | 0.00 | 0.00 | 70 | 1012.3 |
| 20260501235337 | 13 | 198 | 6.4 | 14.5 | 0.00 | 0.00 | 0.00 | 70 | 1012.2 |
| 20260501234838 | 13 | 197 | 9.7 | 14.5 | 0.00 | 0.00 | 0.00 | 69 | 1012.0 |
| 20260501234337 | 13 | 200 | 4.8 | 14.5 | 0.00 | 0.00 | 0.00 | 69 | 1012.0 |
| 20260501233837 | 13 | 200 | 3.2 | 14.5 | 0.00 | 0.00 | 0.00 | 69 | 1012.0 |
| 20260501233337 | 13 | 193 | 4.8 | 16.1 | 0.00 | 0.00 | 0.00 | 68 | 1012.1 |
| 20260501232837 | 13 | 198 | 6.4 | 16.1 | 0.00 | 0.00 | 0.00 | 68 | 1012.1 |
| 20260501232337 | 13 | 196 | 4.8 | 16.1 | 0.00 | 0.00 | 0.00 | 67 | 1012.1 |
| 20260501231837 | 14 | 199 | 6.4 | 16.1 | 0.00 | 0.00 | 0.00 | 66 | 1012.1 |
| 20260501231337 | 14 | 193 | 6.4 | 12.9 | 0.00 | 0.00 | 0.00 | 65 | 1012.0 |
| 20260501230837 | 14 | 191 | 6.4 | 12.9 | 0.00 | 0.00 | 0.00 | 64 | 1012.1 |
| 20260501230338 | 14 | 188 | 3.2 | 16.1 | 0.00 | 0.00 | 0.00 | 63 | 1012.1 |
| 20260501225837 | 14 | 198 | 4.8 | 16.1 | 0.00 | 0.00 | 0.00 | 62 | 1012.1 |
| 20260501225337 | 14 | 197 | 4.8 | 16.1 | 0.00 | 0.00 | 0.00 | 62 | 1012.1 |
| 20260501224837 | 14 | 203 | 9.7 | 17.7 | 0.00 | 0.00 | 0.00 | 62 | 1012.0 |
| 20260501224337 | 14 | 198 | 6.4 | 17.7 | 0.00 | 0.00 | 0.00 | 62 | 1012.1 |
| 20260501223837 | 14 | 196 | 4.8 | 17.7 | 0.00 | 0.00 | 0.00 | 62 | 1012.1 |
| 20260501223337 | 15 | 194 | 4.8 | 17.7 | 0.00 | 0.00 | 0.00 | 62 | 1012.2 |
| 20260501222836 | 15 | 194 | 3.2 | 16.1 | 0.00 | 0.00 | 0.00 | 61 | 1012.3 |
| 20260501222337 | 15 | 193 | 6.4 | 16.1 | 0.00 | 0.00 | 0.00 | 62 | 1012.3 |
| 20260501221836 | 15 | 0 | 0.0 | 16.1 | 0.00 | 0.00 | 0.00 | 62 | 1012.4 |